Regional Weather Roundup
Issued by NWS

Home | Current Version | Previous Version | Text Only | Print | Product List | Glossary Off
Versions: 1 2 3 4 5 6 7 8 9 10 11 12 13 14 15 16 17 18 19 20 21 22 23 24 25 26 27 28 29 30 31 32 33 34 35 36 37 38 39 40 41 42 43 44 45 46 47 48 49 50

000
ASUS43 KBIS 290420
RWRND

NORTH DAKOTA REGIONAL WEATHER ROUNDUP
NATIONAL WEATHER SERVICE BISMARCK ND
1000 PM CST SUN DEC 28 2014

NOTE: "FAIR" INDICATES FEW OR NO CLOUDS BELOW 12,000 FEET WITH NO
SIGNIFICANT WEATHER AND/OR OBSTRUCTIONS TO VISIBILITY.


NDZ001>003-009>011-017-290500-
NORTHWEST NORTH DAKOTA

CITY           SKY/WX    TMP DP  RH WIND       PRES   REMARKS
WILLISTON      CLOUDY     1  -6  72 NE12      30.45R WCI -16
MINOT          PTCLDY    -8 -14  74 NW7       30.44R WCI -23
MINOT AFB      PTCLDY   -10 -14  82 NW8       30.46R WCI -27
$$

NDZ018>021-031>035-040>046-290500-
SOUTHWEST NORTH DAKOTA

CITY           SKY/WX    TMP DP  RH WIND       PRES   REMARKS
BISMARCK       CLOUDY     2  -4  76 NE9       30.41R WCI -13
DICKINSON      LGT SNOW   6   1  80 NE10      30.29R WCI  -9
GARRISON         N/A     -1  -5  82 NE8       30.40R WCI -15
HETTINGER ARPT LGT SNOW   8   3  80 NE14      30.26R WCI  -8
$$

NDZ004>008-012>016-024-026-027-054-290500-
NORTHEAST NORTH DAKOTA

CITY           SKY/WX    TMP DP  RH WIND       PRES   REMARKS
GRAND FORKS    CLEAR    -10 -15  78 NW3       30.49R
GRND FRKS AFB  CLEAR     -7 -12  81 NW5       30.49R WCI -19
DEVILS LAKE    PTCLDY    -8 -11  84 N7        30.43R WCI -22
$$

NDZ022-023-025-028>030-036>039-047>053-290500-
SOUTHEAST NORTH DAKOTA

CITY           SKY/WX    TMP DP  RH WIND       PRES   REMARKS
FARGO          CLEAR     -3 -10  72 N12       30.47R WCI -21
JAMESTOWN      CLOUDY    -3  -8  79 N9        30.41R WCI -19
$$



USA.gov is the U.S. government's official web portal to all federal, state and local government web resources and services.